[[{"header":{"parameterUnit":"m.s-1","parameterCategory":1,"la1":30.2991,"la2":30.254,"lo1":-89.0895,"lo2":-89.0444,"dy":0.0017,"dx":0.0017,"nx":28,"ny":28,"refTime":"2025-06-10T21:00:00:Z","depth":0,"parameterNumber":2,"parameterNumberName":"U-component_of_WINDS"},"data":[0,0,0,0,0,0,0,0,0,0,0,0,0,0,0,0,0,0,0,0,0,0,0,0,0,0,0,0,0,0,0,0,0,0,0,0,0,0,0,0,0,0,0,0,0,0,0,0,0,0,0,0,0,0,0,0,0,0,0.0566,0.0565,0,0.0494,0.0493,0.0492,0.0449,0.0449,0.0449,0.0449,0.0372,0.037,0.0368,0,0,0,0,0,0,0,0,0,0,0,0,0,0.0662,0.066,0.0566,0.0565,0.0564,0.0494,0.0493,0.0492,0.045,0.0449,0.0449,0.0449,0.0373,0.037,0.0368,0,0,0,0,0,0,0,0,0,0,0,0,0,0.0608,0.066,0.0566,0.0535,0.0531,0.0494,0.0493,0.0492,0.045,0.0449,0.0449,0.0449,0.0373,0.0371,0.0368,0.0356,0,0,0.0359,0.0358,0,0,0,0,0,0,0,0,0.0611,0.0605,0.054,0.0537,0.0533,0.048,0.0498,0.0446,0.045,0.048,0.0449,0.0449,0.0408,0.0402,0.0389,0.0352,0.0349,0.0359,0.0357,0.0356,0.0355,0,0,0,0,0,0,0,0.0615,0.0607,0.0537,0.0539,0.0535,0.0522,0.0514,0.0488,0.0446,0.0478,0.0474,0.0467,0.0406,0.0392,0.0387,0.0347,0.0359,0.0356,0.0355,0.0354,0.0292,0.0292,0,0,0,0,0,0,0.0624,0.0611,0.054,0.0535,0.0572,0.0521,0.0512,0.0497,0.0447,0.0439,0.0467,0.0465,0.0397,0.0391,0.0384,0.0364,0.0356,0.0353,0.0352,0.0292,0.0292,0.0292,0,0,0,0,0,0,0.0627,0.0618,0.0542,0.0572,0.0561,0.052,0.0503,0.0496,0.0482,0.0439,0.043,0.0461,0.0397,0.0388,0.0362,0.0361,0.0352,0.0349,0.0292,0.0292,0.0292,0.0326,0,0,0,0,0,0,0.063,0.0619,0.0616,0.0572,0.056,0.0524,0.0503,0.0495,0.0478,0.0475,0.0431,0.0423,0.0396,0.0367,0.036,0.0357,0.0347,0.0292,0.0292,0.0292,0.0325,0.0327,0.0329,0,0,0,0,0,0.0633,0.0628,0.0616,0.0608,0.0555,0.0524,0.0516,0.0486,0.0478,0.0473,0.0444,0.0425,0.0362,0.0365,0.0356,0.0353,0.0292,0.0292,0.0292,0.0323,0.0326,0.0329,0,0,0,0,0,0,0.0673,0.0622,0.0608,0.0589,0.0561,0.0517,0.051,0.0491,0.0463,0.0461,0.0423,0.0414,0.0391,0.0369,0.0372,0.0336,0.0325,0.0323,0.0351,0.0354,0.0356,0.0361,0.0345,0,0,0,0,0,0.0679,0.0659,0.0616,0.0603,0.059,0.0552,0.0537,0.0516,0.0485,0.0473,0.0442,0.0412,0.0385,0.0368,0.0341,0.0321,0.0309,0.0314,0.0316,0.0318,0.0317,0.0301,0.0302,0.0293,0.0293,0.0293,0,0,0.0692,0.0662,0.0652,0.061,0.0586,0.0564,0.0543,0.0521,0.0504,0.0469,0.0443,0.0419,0.0382,0.0358,0.0346,0.0339,0.0317,0.0318,0.032,0.0318,0.0302,0.0303,0.0303,0.0293,0.0293,0.0293,0,0,0.0705,0.0682,0.0667,0.0643,0.0607,0.0581,0.0577,0.0535,0.0518,0.0491,0.0463,0.0441,0.0397,0.0371,0.0352,0.0351,0.0331,0.0343,0.0355,0.034,0.0341,0.0341,0.0339,0.0339,0.0343,0.0343,0.0343,0,0.0726,0.0694,0.0662,0.0642,0.0623,0.059,0.0574,0.0552,0.0508,0.0495,0.0488,0.0429,0.0402,0.037,0.037,0.0356,0.0349,0.0348,0.0344,0.0344,0.0344,0.0341,0.034,0.0344,0.0344,0.0344,0.0344,0,0.0721,0.0698,0.0691,0.065,0.063,0.0612,0.0575,0.0558,0.0538,0.0512,0.0483,0.0449,0.0413,0.0404,0.0384,0.0368,0.0365,0.0351,0.0339,0.0347,0.0343,0.0342,0.0347,0.0346,0.0346,0.0345,0,0,0.0758,0.0697,0.0695,0.0675,0.063,0.0612,0.0591,0.0556,0.0542,0.0512,0.0491,0.0453,0.0439,0.0417,0.0394,0.0381,0.0379,0.0368,0.0367,0.037,0.0356,0.0366,0.0366,0.0366,0.0365,0.0365,0.0359,0,0.0763,0.0726,0.0695,0.0668,0.0645,0.0612,0.0593,0.0563,0.0537,0.0513,0.0484,0.0457,0.0442,0.0428,0.0414,0.0383,0.0376,0.0383,0.0344,0.0343,0.0354,0.0365,0.0375,0.0371,0.0358,0.0357,0.0357,0,0.0765,0.0736,0.0707,0.0663,0.0652,0.0636,0.06,0.0578,0.0542,0.0524,0.0498,0.0473,0.0446,0.0437,0.0398,0.0403,0.0385,0.0367,0.0366,0.036,0.0351,0.0358,0.037,0.0369,0.0355,0.0356,0.0356,0,0.0793,0.0747,0.0723,0.0707,0.0655,0.0643,0.0621,0.0584,0.0565,0.0533,0.0519,0.0484,0.0465,0.0437,0.0402,0.0399,0.0366,0.0354,0.0348,0.0349,0.0343,0.0344,0.035,0.0333,0.0333,0.0333,0.0333,0,0.0802,0.0785,0.0734,0.072,0.0698,0.0662,0.0641,0.0615,0.0582,0.056,0.0529,0.0508,0.0464,0.0436,0.0409,0.0379,0.0371,0.0354,0.0347,0.0356,0.0358,0.0344,0.0343,0.0333,0.0333,0.0333,0.0333,0,0.083,0.0796,0.0767,0.0719,0.0707,0.0693,0.0651,0.0634,0.0606,0.0578,0.0569,0.0525,0.0491,0.0453,0.0407,0.0388,0.036,0.035,0.0373,0.0368,0.0364,0.0365,0.0361,0.0358,0.0344,0.0344,0.0345,0,0.0838,0.0824,0.0774,0.0757,0.0736,0.0709,0.0689,0.0651,0.063,0.0586,0.0573,0.0538,0.0507,0.0454,0.0416,0.038,0.0368,0.0369,0.0362,0.0371,0.0365,0.0366,0.0363,0.0371,0.0371,0.0371,0.0372,0,0.0854,0.0837,0.081,0.0775,0.0751,0.0722,0.0692,0.0679,0.0634,0.0612,0.0578,0.0554,0.0506,0.047,0.0428,0.0402,0.0378,0.0374,0.037,0.038,0.0393,0.0384,0.0377,0.0374,0.0374,0.0374,0.0374,0.0374,0.0871,0.0856,0.0818,0.0787,0.076,0.0732,0.0712,0.0682,0.0653,0.0612,0.059,0.0555,0.0515,0.0457,0.0432,0.0402,0.0394,0.039,0.0388,0.0388,0.0389,0.0398,0.0394,0.0394,0.0394,0.0394,0.0394,0,0.0884,0.0858,0.083,0.0788,0.0763,0.0744,0.0708,0.0688,0.0658,0.0623,0.0593,0.0552,0.0516,0.0474,0.0435,0.0419,0.0406,0.0409,0.041,0.0403,0.0399,0.0406,0.042,0.042,0.042,0.042,0.042,0.042,0.0888,0.0861,0.0839,0.0797,0.077,0.0736,0.0717,0.069,0.0662,0.0617,0.0587,0.0561,0.0522,0.0479,0.0444,0.0432,0.0418,0.0424,0.0409,0.0406,0.0404,0.0402,0.0408,0.0422,0.0422,0.0416,0.0416,0.0416]},{"header":{"parameterUnit":"m.s-1","parameterCategory":1,"la1":30.2991,"la2":30.254,"lo1":-89.0895,"lo2":-89.0444,"dy":0.0017,"dx":0.0017,"nx":28,"ny":28,"refTime":"2025-06-10T21:00:00:Z","depth":0,"parameterNumber":3,"parameterNumberName":"V-component_of_WINDS"},"data":[0,0,0,0,0,0,0,0,0,0,0,0,0,0,0,0,0,0,0,0,0,0,0,0,0,0,0,0,0,0,0,0,0,0,0,0,0,0,0,0,0,0,0,0,0,0,0,0,0,0,0,0,0,0,0,0,0,0,1.8799,1.8799,0,1.8776,1.8776,1.8776,1.869,1.8688,1.8686,1.8684,1.8663,1.8664,1.8666,0,0,0,0,0,0,0,0,0,0,0,0,0,1.8769,1.877,1.8799,1.8799,1.8799,1.8777,1.8776,1.8776,1.869,1.8688,1.8685,1.8683,1.8663,1.8664,1.8666,0,0,0,0,0,0,0,0,0,0,0,0,0,1.8768,1.877,1.8799,1.8753,1.8749,1.8777,1.8776,1.8776,1.869,1.8687,1.8685,1.8682,1.8662,1.8664,1.8666,1.8738,0,0,1.8672,1.8673,0,0,0,0,0,0,0,0,1.8768,1.8769,1.876,1.8756,1.8751,1.8733,1.8758,1.8763,1.8691,1.8713,1.8684,1.868,1.8689,1.8688,1.8691,1.8737,1.8736,1.8672,1.8673,1.8674,1.8675,0,0,0,0,0,0,0,1.8768,1.877,1.879,1.876,1.8755,1.8734,1.873,1.8759,1.8718,1.8711,1.8704,1.8703,1.8686,1.8689,1.869,1.8735,1.8672,1.8674,1.8675,1.8676,1.8838,1.8841,0,0,0,0,0,0,1.8775,1.877,1.8791,1.8789,1.8753,1.8737,1.8733,1.8742,1.8717,1.8711,1.8705,1.8699,1.8687,1.8688,1.8689,1.877,1.8674,1.8676,1.8677,1.8835,1.8839,1.8842,0,0,0,0,0,0,1.8774,1.8777,1.8792,1.8778,1.8778,1.874,1.8751,1.8743,1.8746,1.8713,1.8706,1.8716,1.8685,1.8686,1.8726,1.8769,1.8677,1.8679,1.8831,1.8836,1.8841,1.8935,0,0,0,0,0,0,1.8774,1.8778,1.8805,1.8779,1.8779,1.8829,1.8754,1.8745,1.8749,1.8741,1.8721,1.8715,1.8683,1.8723,1.8728,1.877,1.868,1.8827,1.8833,1.8839,1.8928,1.8943,1.8955,0,0,0,0,0,1.8773,1.8833,1.8806,1.8809,1.8812,1.8832,1.8832,1.8793,1.8753,1.878,1.8758,1.8716,1.8763,1.8728,1.8732,1.8776,1.8824,1.8832,1.8839,1.8922,1.894,1.8955,0,0,0,0,0,0,1.8865,1.8829,1.8799,1.8852,1.8846,1.8817,1.885,1.8813,1.8818,1.881,1.8761,1.8758,1.8805,1.8794,1.8756,1.8843,1.8787,1.8795,1.8849,1.8865,1.8878,1.888,1.8682,0,0,0,0,0,1.8891,1.891,1.8877,1.8927,1.8926,1.8888,1.8896,1.8866,1.8857,1.8855,1.8836,1.883,1.8844,1.8854,1.8864,1.8926,1.892,1.8958,1.8971,1.8982,1.899,1.9022,1.9038,1.8865,1.8865,1.8865,0,0,1.8946,1.8929,1.8944,1.8945,1.8937,1.8958,1.8887,1.8912,1.8927,1.8859,1.8895,1.8881,1.8871,1.8922,1.8944,1.8915,1.9036,1.8991,1.9,1.9002,1.9031,1.9047,1.9062,1.887,1.8869,1.8869,0,0,1.9057,1.9045,1.9085,1.9078,1.9065,1.904,1.905,1.9027,1.9015,1.905,1.8999,1.9016,1.904,1.9035,1.9036,1.9143,1.9105,1.9148,1.9219,1.925,1.9264,1.9276,1.9314,1.9328,1.9156,1.9156,1.9157,0,1.9127,1.9156,1.9111,1.9139,1.9141,1.9079,1.9119,1.9115,1.9107,1.911,1.9077,1.9105,1.9095,1.9143,1.9169,1.9172,1.9182,1.9151,1.9265,1.9277,1.9287,1.9323,1.9338,1.9162,1.9161,1.9161,1.916,0,1.9242,1.9263,1.9297,1.929,1.9296,1.933,1.9291,1.9302,1.9272,1.925,1.9287,1.9271,1.9277,1.9286,1.9257,1.9331,1.9313,1.9274,1.9216,1.931,1.9343,1.9356,1.917,1.9168,1.9166,1.9165,0,0,1.9412,1.9378,1.9391,1.9387,1.9368,1.9383,1.9414,1.9419,1.943,1.9427,1.9452,1.9473,1.9436,1.9437,1.9406,1.9434,1.952,1.939,1.9389,1.9415,1.96,1.9631,1.9648,1.9493,1.9496,1.9498,1.9601,0,1.9517,1.9568,1.9528,1.9586,1.9605,1.9545,1.9572,1.9564,1.9544,1.9557,1.9536,1.9551,1.9501,1.9501,1.9526,1.9504,1.9556,1.9496,1.9517,1.9519,1.9522,1.9665,1.9697,1.9796,1.9614,1.9616,1.9618,0,1.9647,1.9648,1.9708,1.9684,1.969,1.9716,1.9716,1.9729,1.9719,1.9702,1.9703,1.9664,1.9694,1.9637,1.9677,1.9637,1.9643,1.9633,1.9636,1.9637,1.9574,1.967,1.9826,1.9841,1.9638,1.9636,1.9635,0,1.9765,1.9781,1.9819,1.9817,1.979,1.9809,1.9799,1.9785,1.979,1.9791,1.9794,1.9799,1.9801,1.9806,1.9771,1.9732,1.9815,1.9755,1.9803,1.9804,1.9824,1.9824,1.9984,1.9828,1.9827,1.9827,1.9827,0,1.9888,1.9927,1.9871,1.9895,1.9937,1.989,1.9933,1.9917,1.9905,1.9924,1.9873,1.9892,1.9844,1.9858,1.983,1.9868,1.987,1.9858,1.985,1.9863,1.9864,1.9867,1.9859,1.9831,1.983,1.9829,1.9829,0,2.0027,1.9991,2.0028,1.9999,1.9992,2.0025,2.0,2.002,1.9997,2.0022,2.0025,1.9988,2.0003,1.9967,1.9977,1.9958,2.0012,1.9993,2.0015,2.001,2.006,2.0056,2.0228,2.0248,2.0079,2.0081,2.0082,0,2.0108,2.0136,2.0109,2.0118,2.011,2.0125,2.0129,2.0085,2.0092,2.0081,2.0103,2.0113,2.0118,2.0144,2.0119,2.0126,2.0107,2.0167,2.0108,2.0119,2.0108,2.0107,2.011,2.0179,2.0181,2.0183,2.0184,0,2.0255,2.0235,2.0243,2.0245,2.0252,2.0251,2.0247,2.0258,2.021,2.022,2.0233,2.0238,2.0247,2.0257,2.0258,2.0248,2.0209,2.0203,2.0214,2.0228,2.024,2.0234,2.0049,2.0199,2.0198,2.0197,2.0196,2.0195,2.0367,2.0389,2.0374,2.0384,2.0376,2.0373,2.0391,2.0369,2.0379,2.0382,2.0355,2.0374,2.0362,2.0359,2.0353,2.0368,2.034,2.0357,2.0362,2.0367,2.0375,2.0237,2.0368,2.0367,2.0367,2.0366,2.0366,0,2.0512,2.0498,2.0508,2.0504,2.0512,2.0472,2.0465,2.0475,2.0493,2.0484,2.049,2.0505,2.0515,2.049,2.0496,2.0513,2.0495,2.0516,2.0515,2.0513,2.0399,2.0388,2.053,2.053,2.053,2.053,2.053,2.053,2.0588,2.0624,2.0602,2.0633,2.0619,2.0637,2.0636,2.0633,2.0626,2.0645,2.0653,2.0635,2.062,2.0625,2.0632,2.0624,2.063,2.0657,2.0644,2.0537,2.0521,2.0506,2.0496,2.0658,2.0659,2.0757,2.0758,2.0758]}]]